,,Stat5,,Stat1,,Stat2,,Stat3,,Stat4,,Wind1,,Wind1,
time,status,PA1M_AVG,status,PR1M_SUM,status,RH1M_AVG,status,SR1M_AVG,status,TA1M_AVG,status,W1dAve1m,status,W1sAve1m,
2000-09-26, 00:00:00,VALID,917.428,VALID,0,VALID,96.8645,VALID,-0.0169808,VALID,19.7179,VALID,247,VALID,0.836965,
2000-09-26, 00:01:00,VALID,917.428,VALID,0,VALID,96.8543,VALID,-0.0339617,VALID,19.7084,VALID,251,VALID,1.06094,
2000-09-26, 00:02:00,VALID,917.404,VALID,0,VALID,96.8479,VALID,0,VALID,19.7114,VALID,241,VALID,0.950994,
2000-09-26, 00:03:00,VALID,917.4,VALID,0,VALID,96.8365,VALID,0,VALID,19.7251,VALID,227,VALID,0.449113,
2000-09-26, 00:04:00,VALID,917.378,VALID,0,VALID,96.7805,VALID,-0.0339617,VALID,19.734,VALID,239,VALID,0.432726,
2000-09-26, 00:05:00,VALID,917.363,VALID,0,VALID,96.7577,VALID,-0.0169808,VALID,19.734,VALID,243,VALID,0.101974,
2000-09-26, 00:06:00,VALID,917.331,VALID,0,VALID,96.7513,VALID,0,VALID,19.7372,VALID,243,VALID,0,
2000-09-26, 00:07:00,VALID,917.32,VALID,0,VALID,96.6623,VALID,0,VALID,19.7243,VALID,243,VALID,0,
2000-09-26, 00:08:00,VALID,917.318,VALID,0,VALID,96.628,VALID,0,VALID,19.7211,VALID,239,VALID,0.412418,
2000-09-26, 00:09:00,VALID,917.29,VALID,0,VALID,96.647,VALID,-0.0169808,VALID,19.7246,VALID,251,VALID,0.706715,
2000-09-26, 00:10:00,VALID,917.282,VALID,0,VALID,96.5555,VALID,-0.0169808,VALID,19.7084,VALID,256,VALID,0.686883,
2000-09-26, 00:11:00,VALID,917.272,VALID,0,VALID,96.4728,VALID,0,VALID,19.7276,VALID,247,VALID,0.478463,
2000-09-26, 00:12:00,VALID,917.268,VALID,0,VALID,96.3317,VALID,0,VALID,19.7703,VALID,264,VALID,0.454688,
2000-09-26, 00:13:00,VALID,917.243,VALID,0,VALID,96.2376,VALID,-0.0339617,VALID,19.7986,VALID,264,VALID,0.422676,
2000-09-26, 00:14:00,VALID,917.23,VALID,0,VALID,96.1244,VALID,0,VALID,19.821,VALID,251,VALID,0.385653,
2000-09-26, 00:15:00,VALID,917.212,VALID,0,VALID,95.926,VALID,0,VALID,19.8568,VALID,262,VALID,0.5733,
2000-09-26, 00:16:00,VALID,917.202,VALID,0,VALID,95.6743,VALID,0,VALID,19.8729,VALID,257,VALID,0.504645,
2000-09-26, 00:17:00,VALID,917.192,VALID,0,VALID,95.6666,VALID,-0.0169808,VALID,19.8956,VALID,247,VALID,0.612542,
2000-09-26, 00:18:00,VALID,917.186,VALID,0,VALID,95.5725,VALID,0.0169808,VALID,19.8757,VALID,275,VALID,0.404139,
2000-09-26, 00:19:00,VALID,917.165,VALID,0,VALID,95.5496,VALID,0.0169808,VALID,19.8533,VALID,250,VALID,1.02105,
2000-09-26, 00:20:00,VALID,917.167,VALID,0,VALID,95.5242,VALID,0,VALID,19.8175,VALID,247,VALID,1.02083,
2000-09-26, 00:21:00,VALID,917.168,VALID,0,VALID,95.6857,VALID,0,VALID,19.8272,VALID,251,VALID,0.702069,
2000-09-26, 00:22:00,VALID,917.139,VALID,0,VALID,95.5509,VALID,0.0169808,VALID,19.8215,VALID,255,VALID,0.728795,
2000-09-26, 00:23:00,VALID,917.145,VALID,0,VALID,95.5382,VALID,0,VALID,19.8212,VALID,263,VALID,0.661184,
2000-09-26, 00:24:00,VALID,917.135,VALID,0,VALID,95.1821,VALID,0,VALID,19.8635,VALID,251,VALID,0.979941,
2000-09-26, 00:25:00,VALID,917.152,VALID,0,VALID,95.2368,VALID,-0.0339617,VALID,19.8958,VALID,244,VALID,0.972245,
2000-09-26, 00:26:00,VALID,917.157,VALID,0,VALID,95.3436,VALID,0.0169808,VALID,19.8729,VALID,247,VALID,0.798775,
2000-09-26, 00:27:00,VALID,917.168,VALID,0,VALID,95.5509,VALID,0,VALID,19.8371,VALID,248,VALID,0.604241,
2000-09-26, 00:28:00,VALID,917.177,VALID,0,VALID,95.8243,VALID,0,VALID,19.8046,VALID,231,VALID,0.522035,
2000-09-26, 00:29:00,VALID,917.179,VALID,0,VALID,95.879,VALID,0,VALID,19.7924,VALID,253,VALID,0.605114,
2000-09-26, 00:30:00,VALID,917.172,VALID,0,VALID,95.9515,VALID,-0.0169808,VALID,19.7792,VALID,245,VALID,0.42693,
2000-09-26, 00:31:00,VALID,917.149,VALID,0,VALID,96.1371,VALID,-0.0169808,VALID,19.7658,VALID,254,VALID,0.236275,
2000-09-26, 00:32:00,VALID,917.138,VALID,0,VALID,96.1626,VALID,0,VALID,19.7502,VALID,257,VALID,0.082348,
2000-09-26, 00:33:00,VALID,917.112,VALID,0,VALID,96.1562,VALID,-0.0169808,VALID,19.7499,VALID,257,VALID,0,
2000-09-26, 00:34:00,VALID,917.085,VALID,0,VALID,96.1804,VALID,0,VALID,19.7437,VALID,254,VALID,0.031467,
2000-09-26, 00:35:00,VALID,917.094,VALID,0,VALID,96.1804,VALID,-0.0169808,VALID,19.7437,VALID,237,VALID,0.779447,
2000-09-26, 00:36:00,VALID,917.102,VALID,0,VALID,96.1193,VALID,0,VALID,19.7273,VALID,239,VALID,0.710726,
2000-09-26, 00:37:00,VALID,917.065,VALID,0,VALID,95.8892,VALID,0,VALID,19.7407,VALID,249,VALID,0.592188,
2000-09-26, 00:38:00,VALID,917.051,VALID,0,VALID,95.8357,VALID,0.0169808,VALID,19.7599,VALID,276,VALID,0.608964,
2000-09-26, 00:39:00,VALID,917.016,VALID,0,VALID,95.5369,VALID,-0.0169808,VALID,19.776,VALID,295,VALID,0.603252,
2000-09-26, 00:40:00,VALID,917.005,VALID,0,VALID,95.261,VALID,0,VALID,19.8508,VALID,270,VALID,0.475329,
2000-09-26, 00:41:00,VALID,916.992,VALID,0,VALID,94.8833,VALID,0,VALID,19.8956,VALID,294,VALID,0.238387,
2000-09-26, 00:42:00,VALID,916.968,VALID,0,VALID,94.7244,VALID,0.0169808,VALID,19.9403,VALID,285,VALID,0.365402,
2000-09-26, 00:43:00,VALID,916.96,VALID,0,VALID,94.9126,VALID,0,VALID,19.9433,VALID,254,VALID,0.149038,
2000-09-26, 00:44:00,VALID,916.962,VALID,0,VALID,94.9113,VALID,-0.0169808,VALID,19.9152,VALID,183,VALID,0.143466,
2000-09-26, 00:45:00,VALID,916.942,VALID,0,VALID,94.8706,VALID,-0.0169808,VALID,19.8856,VALID,186,VALID,0,
2000-09-26, 00:46:00,VALID,916.922,VALID,0,VALID,95.0537,VALID,0,VALID,19.8893,VALID,228,VALID,0,
2000-09-26, 00:47:00,VALID,916.916,VALID,0,VALID,95.0321,VALID,0,VALID,19.8503,VALID,260,VALID,0,
2000-09-26, 00:48:00,VALID,916.874,VALID,0,VALID,94.863,VALID,0,VALID,19.827,VALID,276,VALID,0.0204814,
2000-09-26, 00:49:00,VALID,916.854,VALID,0,VALID,94.7765,VALID,0,VALID,19.8762,VALID,266,VALID,0.516059,
2000-09-26, 00:50:00,VALID,916.831,VALID,0,VALID,94.9952,VALID,0,VALID,19.899,VALID,229,VALID,0.491587,
2000-09-26, 00:51:00,VALID,916.809,VALID,0,VALID,95.2928,VALID,0,VALID,19.8856,VALID,172,VALID,0.23353,
2000-09-26, 00:52:00,VALID,916.808,VALID,0,VALID,95.3119,VALID,-0.0509425,VALID,19.8083,VALID,147,VALID,0.136161,
2000-09-26, 00:53:00,VALID,916.793,VALID,0,VALID,95.439,VALID,-0.0509425,VALID,19.731,VALID,233,VALID,0.785567,
2000-09-26, 00:54:00,VALID,916.781,VALID,0,VALID,95.5102,VALID,-0.0339617,VALID,19.6756,VALID,217,VALID,1.0891,
2000-09-26, 00:55:00,VALID,916.791,VALID,0,VALID,95.5713,VALID,-0.0339617,VALID,19.6861,VALID,138,VALID,1.48951,
2000-09-26, 00:56:00,VALID,916.787,VALID,0,VALID,95.5458,VALID,-0.0169808,VALID,19.7248,VALID,147,VALID,1.18644,
2000-09-26, 00:57:00,VALID,916.795,VALID,0,VALID,95.0626,VALID,-0.0169808,VALID,19.7077,VALID,167,VALID,0.861607,
2000-09-26, 00:58:00,VALID,916.799,VALID,0,VALID,94.8782,VALID,-0.0509425,VALID,19.7832,VALID,215,VALID,0.327123,
2000-09-26, 00:59:00,VALID,916.791,VALID,0,VALID,94.8528,VALID,-0.0339617,VALID,19.8349,VALID,249,VALID,0.0726799,
2000-09-26, 01:00:00,VALID,916.774,VALID,0,VALID,94.9774,VALID,0,VALID,19.8632,VALID,229,VALID,0.0268842,
2000-09-26, 01:01:00,VALID,916.763,VALID,0,VALID,95.0092,VALID,-0.0169808,VALID,19.8575,VALID,233,VALID,0,
2000-09-26, 01:02:00,VALID,916.776,VALID,0,VALID,95.0028,VALID,0.0169808,VALID,19.8212,VALID,154,VALID,0.415963,
2000-09-26, 01:03:00,VALID,916.795,VALID,0,VALID,95.2724,VALID,-0.0339617,VALID,19.7698,VALID,118,VALID,0.480152,
2000-09-26, 01:04:00,VALID,916.807,VALID,0,VALID,95.5204,VALID,-0.0169808,VALID,19.7407,VALID,116,VALID,0.690755,
2000-09-26, 01:05:00,VALID,916.814,VALID,0,VALID,95.3475,VALID,-0.0339617,VALID,19.6955,VALID,171,VALID,0.297877,
2000-09-26, 01:06:00,VALID,916.795,VALID,0,VALID,94.9024,VALID,-0.0169808,VALID,19.7141,VALID,145,VALID,0.849451,
2000-09-26, 01:07:00,VALID,916.792,VALID,0,VALID,94.6188,VALID,0,VALID,19.8083,VALID,97,VALID,0.7375,
2000-09-26, 01:08:00,VALID,916.788,VALID,0,VALID,94.1992,VALID,-0.0339617,VALID,19.8376,VALID,121,VALID,1.08573,
2000-09-26, 01:09:00,VALID,916.815,VALID,0,VALID,94.1458,VALID,-0.0169808,VALID,19.7954,VALID,118,VALID,1.03209,
2000-09-26, 01:10:00,VALID,916.802,VALID,0,VALID,93.9614,VALID,0,VALID,19.8379,VALID,121,VALID,0.612048,
2000-09-26, 01:11:00,VALID,916.792,VALID,0,VALID,93.9093,VALID,-0.0169808,VALID,19.8891,VALID,127,VALID,0.390836,
2000-09-26, 01:12:00,VALID,916.787,VALID,0,VALID,93.5367,VALID,0,VALID,19.9182,VALID,124,VALID,0.615625,
2000-09-26, 01:13:00,VALID,916.794,VALID,0,VALID,93.0395,VALID,-0.0509425,VALID,19.996,VALID,149,VALID,0.636218,
2000-09-26, 01:14:00,VALID,916.805,VALID,0,VALID,93.1756,VALID,-0.0169808,VALID,20.0352,VALID,124,VALID,0.492188,
2000-09-26, 01:15:00,VALID,916.809,VALID,0,VALID,92.5843,VALID,0,VALID,20.0086,VALID,125,VALID,1.04756,
2000-09-26, 01:16:00,VALID,916.78,VALID,0,VALID,92.377,VALID,-0.0509425,VALID,20.0894,VALID,93,VALID,0.968961,
2000-09-26, 01:17:00,VALID,916.759,VALID,0,VALID,91.8009,VALID,-0.0339617,VALID,20.1505,VALID,94,VALID,1.37162,
2000-09-26, 01:18:00,VALID,916.732,VALID,0,VALID,91.4017,VALID,0,VALID,20.2122,VALID,103,VALID,2.36064,
2000-09-26, 01:19:00,VALID,916.745,VALID,0,VALID,90.9172,VALID,-0.0169808,VALID,20.2733,VALID,163,VALID,1.47895,
2000-09-26, 01:20:00,VALID,916.75,VALID,0,VALID,91.0443,VALID,0,VALID,20.293,VALID,164,VALID,1.03025,
2000-09-26, 01:21:00,VALID,916.737,VALID,0,VALID,91.2859,VALID,-0.0169808,VALID,20.2671,VALID,179,VALID,0.439611,
2000-09-26, 01:22:00,VALID,916.73,VALID,0,VALID,91.1143,VALID,-0.0509425,VALID,20.248,VALID,146,VALID,0.712723,
2000-09-26, 01:23:00,VALID,916.707,VALID,0,VALID,90.5255,VALID,-0.0169808,VALID,20.2448,VALID,122,VALID,0.72759,
2000-09-26, 01:24:00,VALID,916.685,VALID,0,VALID,89.9508,VALID,-0.0169808,VALID,20.3834,VALID,133,VALID,1.02386,
2000-09-26, 01:25:00,VALID,916.701,VALID,0,VALID,88.4058,VALID,-0.0339617,VALID,20.5192,VALID,133,VALID,2.37315,
2000-09-26, 01:26:00,VALID,916.668,VALID,0,VALID,88.4833,VALID,-0.0339617,VALID,20.6455,VALID,87,VALID,1.47002,
2000-09-26, 01:27:00,VALID,916.677,VALID,0,VALID,88.6296,VALID,-0.0169808,VALID,20.6328,VALID,86,VALID,1.04129,
2000-09-26, 01:28:00,VALID,916.667,VALID,0,VALID,89.301,VALID,-0.0679233,VALID,20.6164,VALID,88,VALID,0.450921,
2000-09-26, 01:29:00,VALID,916.646,VALID,0,VALID,89.9228,VALID,-0.0339617,VALID,20.5555,VALID,93,VALID,0.580256,
2000-09-26, 01:30:00,VALID,916.634,VALID,0,VALID,90.2865,VALID,-0.0169808,VALID,20.4478,VALID,350,VALID,0.593061,
2000-09-26, 01:31:00,VALID,916.622,VALID,0,VALID,90.8383,VALID,-0.0339617,VALID,20.3479,VALID,231,VALID,0.425253,
2000-09-26, 01:32:00,VALID,916.618,VALID,0,VALID,90.729,VALID,-0.0509425,VALID,20.2542,VALID,205,VALID,0.524071,
2000-09-26, 01:33:00,VALID,916.617,VALID,0,VALID,90.9808,VALID,-0.0509425,VALID,20.2157,VALID,208,VALID,0.307432,
2000-09-26, 01:34:00,VALID,916.6,VALID,0,VALID,91.3419,VALID,-0.0339617,VALID,20.1993,VALID,60,VALID,0.305339,
2000-09-26, 01:35:00,VALID,916.58,VALID,0,VALID,91.0113,VALID,-0.0339617,VALID,20.2512,VALID,100,VALID,0.506811,
2000-09-26, 01:36:00,VALID,916.583,VALID,0,VALID,90.6921,VALID,-0.0509425,VALID,20.2674,VALID,142,VALID,0.451436,
2000-09-26, 01:37:00,VALID,916.56,VALID,0,VALID,90.3895,VALID,-0.0679233,VALID,20.3288,VALID,162,VALID,0.547098,
2000-09-26, 01:38:00,VALID,916.557,VALID,0,VALID,90.6095,VALID,-0.0679233,VALID,20.329,VALID,209,VALID,0.824836,
2000-09-26, 01:39:00,VALID,916.535,VALID,0,VALID,91.1283,VALID,-0.0169808,VALID,20.2413,VALID,232,VALID,0.622255,
2000-09-26, 01:40:00,VALID,916.518,VALID,0,VALID,91.5543,VALID,-0.0339617,VALID,20.1836,VALID,249,VALID,0.755962,
2000-09-26, 01:41:00,VALID,916.498,VALID,0,VALID,92.0883,VALID,0,VALID,20.0956,VALID,245,VALID,0.855785,
2000-09-26, 01:42:00,VALID,916.474,VALID,0,VALID,92.6097,VALID,-0.0339617,VALID,20.0216,VALID,244,VALID,0.504018,
2000-09-26, 01:43:00,VALID,916.464,VALID,0,VALID,92.8373,VALID,-0.0169808,VALID,19.9376,VALID,249,VALID,0.407252,
2000-09-26, 01:44:00,VALID,916.452,VALID,0,VALID,93.3396,VALID,-0.0339617,VALID,19.8891,VALID,239,VALID,0.288589,
2000-09-26, 01:45:00,VALID,916.435,VALID,0,VALID,93.4095,VALID,-0.0169808,VALID,19.8242,VALID,189,VALID,0.6983,
2000-09-26, 01:46:00,VALID,916.436,VALID,0,VALID,93.7045,VALID,-0.0169808,VALID,19.7758,VALID,215,VALID,0.721495,
2000-09-26, 01:47:00,VALID,916.434,VALID,0,VALID,93.6397,VALID,-0.0849042,VALID,19.7402,VALID,212,VALID,0.693201,
2000-09-26, 01:48:00,VALID,916.417,VALID,0,VALID,93.5227,VALID,-0.0339617,VALID,19.7499,VALID,189,VALID,0.533995,
2000-09-26, 01:49:00,VALID,916.404,VALID,0,VALID,93.571,VALID,-0.0679233,VALID,19.7984,VALID,216,VALID,0,
2000-09-26, 01:50:00,VALID,916.4,VALID,0,VALID,93.6511,VALID,-0.0339617,VALID,19.8016,VALID,217,VALID,0,
2000-09-26, 01:51:00,VALID,916.379,VALID,0,VALID,93.6867,VALID,-0.0169808,VALID,19.7884,VALID,226,VALID,0,
2000-09-26, 01:52:00,VALID,916.379,VALID,0,VALID,93.6931,VALID,-0.0169808,VALID,19.7693,VALID,222,VALID,0,
2000-09-26, 01:53:00,VALID,916.385,VALID,0,VALID,93.9932,VALID,-0.0169808,VALID,19.7179,VALID,235,VALID,0,
2000-09-26, 01:54:00,VALID,916.392,VALID,0,VALID,94.1941,VALID,-0.0509425,VALID,19.6659,VALID,210,VALID,0,
2000-09-26, 01:55:00,VALID,916.389,VALID,0,VALID,94.1928,VALID,-0.0169808,VALID,19.6016,VALID,203,VALID,0,
2000-09-26, 01:56:00,VALID,916.392,VALID,0,VALID,94.6188,VALID,0,VALID,19.5402,VALID,191,VALID,0,
2000-09-26, 01:57:00,VALID,916.385,VALID,0,VALID,95.0295,VALID,-0.0169808,VALID,19.4982,VALID,198,VALID,0,
2000-09-26, 01:58:00,VALID,916.375,VALID,0,VALID,95.0194,VALID,-0.0169808,VALID,19.4467,VALID,163,VALID,0,
2000-09-26, 01:59:00,VALID,916.375,VALID,0,VALID,95.6704,VALID,-0.0509425,VALID,19.4144,VALID,163,VALID,0,
2000-09-26, 02:00:00,VALID,916.368,VALID,0,VALID,96.0812,VALID,-0.0339617,VALID,19.4177,VALID,164,VALID,0,
2000-09-26, 02:01:00,VALID,916.366,VALID,0,VALID,96.1206,VALID,-0.0169808,VALID,19.4204,VALID,179,VALID,0,
2000-09-26, 02:02:00,VALID,916.353,VALID,0,VALID,95.9375,VALID,0,VALID,19.4497,VALID,205,VALID,0,
2000-09-26, 02:03:00,VALID,916.369,VALID,0,VALID,95.6526,VALID,-0.0169808,VALID,19.5049,VALID,211,VALID,0,
2000-09-26, 02:04:00,VALID,916.367,VALID,0,VALID,95.3958,VALID,-0.0339617,VALID,19.5402,VALID,211,VALID,0.588542,
2000-09-26, 02:05:00,VALID,916.374,VALID,0,VALID,95.3347,VALID,-0.0849042,VALID,19.5178,VALID,183,VALID,1.08013,
2000-09-26, 02:06:00,VALID,916.373,VALID,0,VALID,95.6514,VALID,-0.0339617,VALID,19.4793,VALID,200,VALID,0.491132,
2000-09-26, 02:07:00,VALID,916.376,VALID,0,VALID,95.9095,VALID,-0.0849042,VALID,19.4249,VALID,191,VALID,0.6625,
2000-09-26, 02:08:00,VALID,916.38,VALID,0,VALID,96.1155,VALID,-0.0509425,VALID,19.3665,VALID,165,VALID,0.625206,
2000-09-26, 02:09:00,VALID,916.371,VALID,0,VALID,96.4283,VALID,-0.0679233,VALID,19.3118,VALID,181,VALID,0.483953,
2000-09-26, 02:10:00,VALID,916.367,VALID,0,VALID,96.6407,VALID,-0.0339617,VALID,19.2758,VALID,184,VALID,0.485403,
2000-09-26, 02:11:00,VALID,916.368,VALID,0,VALID,96.8162,VALID,-0.0849042,VALID,19.2636,VALID,182,VALID,0.620144,
2000-09-26, 02:12:00,VALID,916.373,VALID,0,VALID,96.8352,VALID,-0.0509425,VALID,19.2241,VALID,143,VALID,0.557813,
2000-09-26, 02:13:00,VALID,916.389,VALID,0,VALID,96.8416,VALID,-0.0849042,VALID,19.2089,VALID,148,VALID,0.476362,
2000-09-26, 02:14:00,VALID,916.404,VALID,0,VALID,96.8683,VALID,-0.0169808,VALID,19.16,VALID,149,VALID,0.330492,
2000-09-26, 02:15:00,VALID,916.39,VALID,0,VALID,97.0311,VALID,-0.0509425,VALID,19.1309,VALID,156,VALID,0.0395221,
2000-09-26, 02:16:00,VALID,916.398,VALID,0,VALID,97.2765,VALID,-0.0849042,VALID,19.1247,VALID,190,VALID,0.405617,
2000-09-26, 02:17:00,VALID,916.404,VALID,0,VALID,97.4189,VALID,-0.0849042,VALID,19.1177,VALID,219,VALID,0.0107686,
2000-09-26, 02:18:00,VALID,916.411,VALID,0,VALID,97.5015,VALID,-0.0509425,VALID,19.1048,VALID,209,VALID,0,
2000-09-26, 02:19:00,VALID,916.416,VALID,0,VALID,97.4736,VALID,-0.0679233,VALID,19.0894,VALID,199,VALID,0,
2000-09-26, 02:20:00,VALID,916.416,VALID,0,VALID,97.4927,VALID,-0.0509425,VALID,19.0795,VALID,199,VALID,0,
2000-09-26, 02:21:00,VALID,916.417,VALID,0,VALID,97.5893,VALID,-0.0679233,VALID,19.0728,VALID,199,VALID,0,
2000-09-26, 02:22:00,VALID,916.425,VALID,0,VALID,97.555,VALID,-0.0339617,VALID,19.0529,VALID,175,VALID,0,
2000-09-26, 02:23:00,VALID,916.443,VALID,0,VALID,97.452,VALID,-0.0509425,VALID,19.0151,VALID,145,VALID,0.622944,
2000-09-26, 02:24:00,VALID,916.445,VALID,0,VALID,97.6529,VALID,-0.0849042,VALID,19.0183,VALID,161,VALID,0.717905,
2000-09-26, 02:25:00,VALID,916.452,VALID,0,VALID,97.8652,VALID,-0.0679233,VALID,19.0442,VALID,165,VALID,0.273643,
2000-09-26, 02:26:00,VALID,916.461,VALID,0,VALID,97.658,VALID,-0.0849042,VALID,19.0317,VALID,165,VALID,0.00126689,
2000-09-26, 02:27:00,VALID,916.47,VALID,0,VALID,97.4863,VALID,-0.0679233,VALID,18.986,VALID,160,VALID,0,
2000-09-26, 02:28:00,VALID,916.483,VALID,0,VALID,97.705,VALID,-0.0849042,VALID,19.0151,VALID,151,VALID,0.609575,
2000-09-26, 02:29:00,VALID,916.479,VALID,0,VALID,97.8462,VALID,-0.0849042,VALID,19.0663,VALID,157,VALID,0.756629,
2000-09-26, 02:30:00,VALID,916.484,VALID,0,VALID,97.7266,VALID,-0.0169808,VALID,19.1207,VALID,175,VALID,0.459559,
2000-09-26, 02:31:00,VALID,916.495,VALID,0,VALID,97.6732,VALID,0.0339617,VALID,19.162,VALID,188,VALID,0.706081,
2000-09-26, 02:32:00,VALID,916.502,VALID,0,VALID,97.574,VALID,0.0339617,VALID,19.2266,VALID,190,VALID,0.544341,
2000-09-26, 02:33:00,VALID,916.516,VALID,0,VALID,97.2981,VALID,0.0509425,VALID,19.2788,VALID,199,VALID,0.172086,
2000-09-26, 02:34:00,VALID,916.529,VALID,0,VALID,97.059,VALID,0.0169808,VALID,19.288,VALID,204,VALID,0,
2000-09-26, 02:35:00,VALID,916.526,VALID,0,VALID,96.6,VALID,0.0509425,VALID,19.2492,VALID,254,VALID,0.152244,
2000-09-26, 02:36:00,VALID,916.507,VALID,0,VALID,96.497,VALID,0.0849042,VALID,19.2296,VALID,327,VALID,0.288429,
2000-09-26, 02:37:00,VALID,916.494,VALID,0,VALID,96.5326,VALID,0.0509425,VALID,19.2427,VALID,305,VALID,0.233259,
2000-09-26, 02:38:00,VALID,916.496,VALID,0,VALID,96.6547,VALID,0,VALID,19.2363,VALID,304,VALID,0.182566,
2000-09-26, 02:39:00,VALID,916.492,VALID,0,VALID,96.6725,VALID,0.0169808,VALID,19.2234,VALID,304,VALID,0.115076,
2000-09-26, 02:40:00,VALID,916.512,VALID,0,VALID,96.8212,VALID,0,VALID,19.204,VALID,304,VALID,0.150905,
2000-09-26, 02:41:00,VALID,916.509,VALID,0,VALID,96.8746,VALID,0.0679233,VALID,19.1685,VALID,344,VALID,0.0899493,
2000-09-26, 02:42:00,VALID,916.509,VALID,0,VALID,96.9014,VALID,0.0849042,VALID,19.1424,VALID,328,VALID,0.28683,
2000-09-26, 02:43:00,VALID,916.508,VALID,0,VALID,97.0438,VALID,0.0169808,VALID,19.1297,VALID,331,VALID,0,
2000-09-26, 02:44:00,VALID,916.519,VALID,0,VALID,97.2396,VALID,0,VALID,19.1235,VALID,318,VALID,0.3009,
2000-09-26, 02:45:00,VALID,916.529,VALID,0,VALID,97.5143,VALID,-0.0679233,VALID,19.1309,VALID,340,VALID,0.500919,
2000-09-26, 02:46:00,VALID,916.539,VALID,0,VALID,97.6643,VALID,-0.101885,VALID,19.1346,VALID,351,VALID,0.535473,
2000-09-26, 02:47:00,VALID,916.545,VALID,0,VALID,97.8156,VALID,-0.0679233,VALID,19.1443,VALID,351,VALID,0.488387,
2000-09-26, 02:48:00,VALID,916.55,VALID,0,VALID,97.8856,VALID,-0.0679233,VALID,19.1473,VALID,327,VALID,0.232475,
2000-09-26, 02:49:00,VALID,916.549,VALID,0,VALID,97.9581,VALID,-0.0339617,VALID,19.1408,VALID,326,VALID,0.296007,
2000-09-26, 02:50:00,VALID,916.558,VALID,0,VALID,97.9733,VALID,-0.0679233,VALID,19.1212,VALID,326,VALID,0,
2000-09-26, 02:51:00,VALID,916.559,VALID,0,VALID,97.7584,VALID,-0.0849042,VALID,19.0603,VALID,89,VALID,0.590583,
2000-09-26, 02:52:00,VALID,916.56,VALID,0,VALID,97.073,VALID,-0.0509425,VALID,18.9311,VALID,87,VALID,0.970759,
2000-09-26, 02:53:00,VALID,916.576,VALID,0,VALID,96.9293,VALID,-0.0509425,VALID,18.828,VALID,83,VALID,0.601357,
2000-09-26, 02:54:00,VALID,916.574,VALID,0,VALID,97.4011,VALID,-0.0339617,VALID,18.831,VALID,82,VALID,0.168497,
2000-09-26, 02:55:00,VALID,916.579,VALID,0,VALID,97.911,VALID,-0.0679233,VALID,18.9023,VALID,66,VALID,0.224095,
2000-09-26, 02:56:00,VALID,916.588,VALID,0,VALID,98.1882,VALID,-0.0679233,VALID,18.9376,VALID,342,VALID,0.164696,
2000-09-26, 02:57:00,VALID,916.598,VALID,0,VALID,98.2658,VALID,-0.0339617,VALID,18.9535,VALID,308,VALID,0.00178571,
2000-09-26, 02:58:00,VALID,916.618,VALID,0,VALID,98.178,VALID,-0.0509425,VALID,18.905,VALID,309,VALID,0,
2000-09-26, 02:59:00,VALID,916.631,VALID,0,VALID,97.8296,VALID,-0.0679233,VALID,18.7892,VALID,309,VALID,0.079072,
2000-09-26, 03:00:00,VALID,916.635,VALID,0,VALID,97.7228,VALID,0.0339617,VALID,18.7105,VALID,309,VALID,0.0227482,
2000-09-26, 03:01:00,VALID,916.656,VALID,0,VALID,98.0178,VALID,0.0679233,VALID,18.7523,VALID,309,VALID,0,
2000-09-26, 03:02:00,VALID,916.667,VALID,0,VALID,98.276,VALID,0.0339617,VALID,18.8037,VALID,321,VALID,0,
2000-09-26, 03:03:00,VALID,916.671,VALID,0,VALID,98.4629,VALID,0.0169808,VALID,18.8554,VALID,330,VALID,0,
2000-09-26, 03:04:00,VALID,916.67,VALID,0,VALID,98.501,VALID,0.0509425,VALID,18.8787,VALID,330,VALID,0,
2000-09-26, 03:05:00,VALID,916.688,VALID,0,VALID,98.4158,VALID,0.0169808,VALID,18.8166,VALID,330,VALID,0,
2000-09-26, 03:06:00,VALID,916.696,VALID,0,VALID,98.384,VALID,0,VALID,18.7913,VALID,330,VALID,0,
2000-09-26, 03:07:00,VALID,916.702,VALID,0,VALID,98.2264,VALID,0,VALID,18.7135,VALID,331,VALID,0,
2000-09-26, 03:08:00,VALID,916.705,VALID,0,VALID,98.1577,VALID,0.0169808,VALID,18.6718,VALID,331,VALID,0,
2000-09-26, 03:09:00,VALID,916.709,VALID,0,VALID,98.2696,VALID,0.0509425,VALID,18.6914,VALID,334,VALID,0,
2000-09-26, 03:10:00,VALID,916.707,VALID,0,VALID,98.4196,VALID,0,VALID,18.7135,VALID,324,VALID,0.0571546,
2000-09-26, 03:11:00,VALID,916.706,VALID,0,VALID,98.5926,VALID,0.0169808,VALID,18.7751,VALID,322,VALID,0.0625,
2000-09-26, 03:12:00,VALID,916.692,VALID,0,VALID,98.7083,VALID,0.0169808,VALID,18.8166,VALID,322,VALID,0,
2000-09-26, 03:13:00,VALID,916.69,VALID,0,VALID,98.777,VALID,0.0339617,VALID,18.8462,VALID,320,VALID,0,
2000-09-26, 03:14:00,VALID,916.687,VALID,0,VALID,98.8177,VALID,0.0169808,VALID,18.8551,VALID,315,VALID,0,
2000-09-26, 03:15:00,VALID,916.687,VALID,0,VALID,98.721,VALID,-0.0339617,VALID,18.8178,VALID,315,VALID,0,
2000-09-26, 03:16:00,VALID,916.689,VALID,0,VALID,98.6752,VALID,-0.0849042,VALID,18.7668,VALID,315,VALID,0,
2000-09-26, 03:17:00,VALID,916.675,VALID,0,VALID,98.6994,VALID,-0.0849042,VALID,18.7375,VALID,347,VALID,0,
2000-09-26, 03:18:00,VALID,916.678,VALID,0,VALID,98.7897,VALID,-0.0509425,VALID,18.7502,VALID,353,VALID,0,
2000-09-26, 03:19:00,VALID,916.674,VALID,0,VALID,98.8266,VALID,-0.101885,VALID,18.7634,VALID,353,VALID,0,
2000-09-26, 03:20:00,VALID,916.677,VALID,0,VALID,98.8329,VALID,-0.0679233,VALID,18.7638,VALID,155,VALID,0,
2000-09-26, 03:21:00,VALID,916.685,VALID,0,VALID,98.9537,VALID,-0.0849042,VALID,18.7927,VALID,157,VALID,0,
2000-09-26, 03:22:00,VALID,916.702,VALID,0,VALID,98.9715,VALID,-0.101885,VALID,18.8255,VALID,147,VALID,0.0258929,
2000-09-26, 03:23:00,VALID,916.692,VALID,0,VALID,98.7439,VALID,-0.101885,VALID,18.7253,VALID,130,VALID,0.748561,
2000-09-26, 03:24:00,VALID,916.692,VALID,0,VALID,98.5379,VALID,-0.101885,VALID,18.5892,VALID,119,VALID,0.78125,
2000-09-26, 03:25:00,VALID,916.694,VALID,0,VALID,98.5773,VALID,-0.0849042,VALID,18.5638,VALID,118,VALID,0.45662,
2000-09-26, 03:26:00,VALID,916.675,VALID,0,VALID,98.721,VALID,-0.101885,VALID,18.5767,VALID,117,VALID,0,
2000-09-26, 03:27:00,VALID,916.662,VALID,0,VALID,98.7808,VALID,-0.0849042,VALID,18.5894,VALID,117,VALID,0,
2000-09-26, 03:28:00,VALID,916.655,VALID,0,VALID,98.8215,VALID,-0.101885,VALID,18.5795,VALID,118,VALID,0,
2000-09-26, 03:29:00,VALID,916.661,VALID,0,VALID,98.8304,VALID,-0.0849042,VALID,18.5862,VALID,196,VALID,0,
2000-09-26, 03:30:00,VALID,916.666,VALID,0,VALID,98.7808,VALID,-0.0849042,VALID,18.5569,VALID,235,VALID,0,
2000-09-26, 03:31:00,VALID,916.665,VALID,0,VALID,98.8126,VALID,-0.0679233,VALID,18.5442,VALID,238,VALID,0,
2000-09-26, 03:32:00,VALID,916.673,VALID,0,VALID,98.9016,VALID,-0.0339617,VALID,18.5862,VALID,274,VALID,0,
2000-09-26, 03:33:00,VALID,916.68,VALID,0,VALID,98.9499,VALID,-0.0849042,VALID,18.6217,VALID,283,VALID,0,
2000-09-26, 03:34:00,VALID,916.667,VALID,0,VALID,99.0313,VALID,-0.101885,VALID,18.66,VALID,280,VALID,0,